User: anonymous   Login
Location: Unspecified
(0.0000°N, 0.0000°E)
Time: 09:22:25
(UTC+00:00)
Language:

Diademe D-1C - Orbit

View from above orbital plane
View from above orbital plane
View from above satellite
View from above satellite

Ground track
Ground track

The orbit data is extracted from the following two-line orbital elements,

1  2674U 67011A   18051.89058612 +.00000081 +00000-0 +30772-4 0  9990
2  2674 039.9265 312.9871 0268377 292.0441 065.2032 14.54493000646106
Epoch (UTC): 20 February 2018 21:22:26
Eccentricity: 0.0268377
inclination: 39.9265°
perigee height: 521 km
apogee height: 901 km
right ascension of ascending node: 312.9871°
argument of perigee: 292.0441°
revolutions per day: 14.54493000
mean anomaly at epoch: 65.2032°
orbit number at epoch: 64610

The dashed part of the orbit path shows where the satellite is in the earth's shadow,  

DLR